This is the latest recevied weather packets stored in our database for station/object DC3YC-13. If no packets are shown the sender has not sent any weather packets the latest 10 day(s).
| Time | Temp. | Humidity | Pressure | Rain* | Wind** | Luminosity | Snow |
|---|---|---|---|---|---|---|---|
| 1777631791 | 21.11° C | 34% | 1026.1 hPa | 0 mm | - | - | - |
| 1777631191 | 21.11° C | 33% | 1026.1 hPa | 0 mm | - | - | - |
| 1777630591 | 21.11° C | 34% | 1026.1 hPa | 0 mm | - | - | - |
| 1777629991 | 20° C | 34% | 1027.2 hPa | 0 mm | - | - | - |
| 1777629391 | 20° C | 34% | 1027.2 hPa | 0 mm | - | - | - |
| 1777628791 | 20° C | 36% | 1026.1 hPa | 0 mm | - | - | - |
| 1777628191 | 18.89° C | 34% | 1027.2 hPa | 0 mm | - | - | - |
| 1777627591 | 18.89° C | 35% | 1027.2 hPa | 0 mm | - | - | - |
| 1777626991 | 18.89° C | 36% | 1027.2 hPa | 0 mm | - | - | - |
| 1777626391 | 17.78° C | 35% | 1027.3 hPa | 0 mm | - | - | - |
| 1777625791 | 17.78° C | 36% | 1027.3 hPa | 0 mm | - | - | - |
| 1777625191 | 17.78° C | 37% | 1027.3 hPa | 0 mm | - | - | - |
| 1777624591 | 17.22° C | 39% | 1027.3 hPa | 0 mm | - | - | - |
| 1777623991 | 17.22° C | 37% | 1027.3 hPa | 0 mm | - | - | - |
| 1777623391 | 17.22° C | 38% | 1027.3 hPa | 0 mm | - | - | - |
| 1777622791 | 16.11° C | 39% | 1027.3 hPa | 0 mm | - | - | - |
| 1777622191 | 15° C | 40% | 1027.3 hPa | 0 mm | - | - | - |
| 1777621591 | 12.78° C | 46% | 1027.3 hPa | 0 mm | - | - | - |
| 1777620991 | 12.22° C | 50% | 1027.3 hPa | 0 mm | - | - | - |
| 1777620391 | 11.11° C | 51% | 1027.3 hPa | 0 mm | - | - | - |
| 1777619791 | 10° C | 54% | 1027.3 hPa | 0 mm | - | - | - |
| 1777619191 | 8.89° C | 56% | 1027.3 hPa | 0 mm | - | - | - |
| 1777618591 | 8.89° C | 60% | 1027.3 hPa | 0 mm | - | - | - |
| 1777617991 | 7.78° C | 63% | 1027.3 hPa | 0 mm | - | - | - |
| 1777617391 | 7.22° C | 66% | 1027.3 hPa | 0 mm | - | - | - |
* Rain latest hour (hover to see other rain measurements)
** Current wind speed in m/s (hover to see current wind gust speed)